Regional Weather Roundup
Issued by NWS

Home | Current Version | Previous Version | Graphics & Text | Print | Product List | Glossary On
Versions: 1 2 3 4 5 6 7 8 9 10 11 12 13 14 15 16 17 18 19 20 21 22 23 24 25 26 27 28 29 30 31 32 33 34 35 36 37 38 39 40 41 42 43 44 45 46 47 48 49 50
315
ASUS43 KLMK 102310
RWRKY
KENTUCKY REGIONAL WEATHER ROUNDUP
NATIONAL WEATHER SERVICE LOUISVILLE KY
600 PM EST WED FEB 10 2016

NOTE "FAIR" INDICATES FEW OR NO CLOUDS BELOW 12,000 FEET
WITH NO SIGNIFICANT WEATHER AND/OR OBSTRUCTIONS TO VISIBILITY.

KYZ001>023-026-027-061>063-070>075-110000-
WESTERN AND SOUTH CENTRAL KENTUCKY

CITY           SKY/WX    TMP DP  RH WIND       PRES   REMARKS
PADUCAH        LGT SNOW  24  18  77 W7        30.17S WCI  16
HENDERSON      CLOUDY    25  16  68 W9        30.16R WCI  15
OWENSBORO      MIX PCPN  25  14  62 W12       30.15R WCI  14
HOPKINSVILLE   FLURRIES  24  18  80 W10       30.17R WCI  13
BOWLING GREEN  CLOUDY    27  10  49 SW12      30.15R WCI  17
GLASGOW        CLOUDY    24  12  59 W13       30.12S WCI  13
$$

KYZ024-025-028>034-038-045-046-053-110000-
NORTH CENTRAL KENTUCKY

CITY           SKY/WX    TMP DP  RH WIND       PRES   REMARKS
LOUISVILLE/SDF MOCLDY    23   7  50 W15       30.11R WCI  10
LOUISVILLE/LOU PTCLDY    22   8  55 W12       30.12R WCI  10
FORT KNOX      PTCLDY    21   9  59 W8        30.09R WCI  11
$$

KYZ035>037-039>044-047>052-055>060-089>105-110000-
NORTHEAST KENTUCKY

CITY           SKY/WX    TMP DP  RH WIND       PRES   REMARKS
LEXINGTON      MOCLDY    18   6  59 W10       30.07R WCI   6
COVINGTON      CLOUDY    17   5  59 W10       30.05R WCI   5
FRANKFORT      PTCLDY    19   5  54 W9        30.08R WCI   8
$$

KYZ054-064>069-076>088-106>120-110000-
SOUTHEAST KENTUCKY

CITY           SKY/WX    TMP DP  RH WIND       PRES   REMARKS
JACKSON        CLOUDY    17   5  59 VRB5      30.04R WCI  10
LONDON         CLOUDY    19   7  59 W7        30.07R WCI  10
SOMERSET       CLOUDY    21   9  58 W7        30.12R WCI  13
MIDDLESBORO    PTCLDY    23   6  50 CALM      30.07S
MONTICELLO     CLOUDY    22  10  60 W16G24    30.12R WCI   8
$$





USA.gov is the U.S. government's official web portal to all federal, state and local government web resources and services.